Погода Алматы

Погода Алматы : погода сейчас, прогноз погоды и архив. Всё, что Вы хотите узнать о погоде Алматы!

Поиск расширенной информации на нашем сайте:

Другие новости

Новости СМИ2

Главная страница сайта

Новости сайта

03.07.2017

Напоминаем, что на нашем специализированном сайте Метеоцентр.Азия вы можете получить высокодетализированные автоматические прогнозы погоды по пунктам России, СНГ и мира в авиационном формате (включающие направление и скорость ветра, видимость, явления погоды, количество и форму облачности, нижнюю и верхнюю границу облачности).

Рекомендуем: Срочный ремонт ноутбуков в павловском посаде избавит вас от лишних хлопот.

Погода Алматы - сегодня

Время (UTC), дата Ветер
(°,м/с) 
Видим.   Явления Облачность Т
(°С)
Тd
(°С)
f(%) Тe
(°С)
Pmin
(гПа)
dP
(гПа)
Po
(мм)
O2
(г/м3)
Тmin Tmax R s Состояние
почвы
18 17.11.17 тихо ()   н/о    ясно 
-1.1 -5.5 72 -1  1028.8  -0.9  695  281    +6.7       
21 17.11.17 тихо ()   н/о    ясно 
-2.4 -6.2 75 -2  1027.9  -1.3  694  282           
00 18.11.17 тихо () {02}  н/о    ясно 
-3.3 -7.4 73 -3  1027.7  -0.5  693  283           
03 18.11.17 тихо ()   20000 м    ясно 
-3.1 -6.8 76 -3  1027.7  0.1  693  283           
06 18.11.17 тихо ()   10 км    ясно 
+6.1 -2 56 +6  1023.1  -0.9  693  273  -4         
09 18.11.17 тихо ()   10 км    ясно 
+9 -6.8 32 +9  1021.2  -0.8  692  270           
12 18.11.17 тихо ()   10 км    ясно 
+4.9 -4.4 51 +5  1024.6  1.7  693  275           
15 18.11.17 тихо ()   н/о    ясно 
+5.2 -12.9 26 +5  1025.9  1.2  694  275    +10.3       
18 18.11.17 тихо ()   н/о    8/0 верхняя 
[Ci fib]
+3.9 -11 33 +4  1027.6  1.2  695  277    +10.3       
21 18.11.17 тихо ()   н/о    10/0 средняя 
[Ac As]
+3 -5.7 53 +3  1033.3  4.8  699  279           
00 19.11.17 тихо () {03}  н/о  слаб. ливневой снег  10/10 600 м кучево-дожд. 
[Cb cap]
+2.3 -2.1 73 +2  1035.6  1.9  700  280           
03 19.11.17 тихо ()   4000 м  слаб. ливневой снег  10/10 600 м кучево-дожд. 
[Cb cap]
-0.3 -1.1 94 -0  1039.6  2.7  702  283          мокрый или
старый снег
10-40% 
06 19.11.17 030 (СВ) 10 км  в посл. час ливневой снег  10/10 600 м кучево-дожд. 
[Cb cap]
-0.7 -3.1 84 1040.7  0.8  703  284  -0.5    0.5     
09 19.11.17 тихо ()   10 км  {ливн. осадки}  10/10 600 м кучево-дожд. 
[Cb cap]
-1.9 -2.8 94 -2  1040.9  -0.2  703  285           
12 19.11.17 тихо ()   10 км  {ливн. осадки}  10/10 600 м кучево-дожд. 
[Cb cap]
-2.1 -3.6 89 -2  1041.5  0.4  703  286           
15 19.11.17 тихо ()   н/о    9/8 600 м кучево-дожд., верхняя 
[Cb cap|Ci sp]
-1.7 -3.7 86 -2  1040.8  -0.5  703  285    -0.5  0.2     
18 19.11.17 тихо ()   н/о    6/0 верхняя 
[Ci sp]
-4.1 -5.6 89 -4  1040.7  -0.9  702  288    -0.5  0.2     
21 19.11.17 тихо ()   н/о    ясно 
-4.9 -6.5 89 -5  1039.9  -1.1  701  288           
00 20.11.17 тихо () {02}  н/о    ясно 
-6.3 -7.5 91 -6  1039.2  -1.1  700  289           
03 20.11.17 200 (Ю) 10 км    ясно 
-4.9 -6.9 86 -4  1038.2  -0.4  700  288  -6.7      равномерный
сухой снег
100% 
06 20.11.17 220 (ЮЗ) 10 км    ясно 
+1.9 -5 60 +3  1035.4  700  280  -6.7         
09 20.11.17 190 (Ю) 4000 м  дым  ясно 
+3.5 -4.2 57 +4  1033.4  -1.3  699  278           
12 20.11.17 тихо ()   10 км    ясно 
+0 -3.5 77 1035.1  0.3  699  282           
15 20.11.17 тихо ()   н/о    ясно 
-1.8 -4.9 79 -2  1035.7  -0.1  699  284    +3.7       
18 20.11.17 тихо ()   н/о    ясно 
-2.9 -6.2 78 -3  1035.4  -0.7  699  285    +3.7       
Время (UTC), дата Ветер
(°,м/с) 
Видим.   Явления Облачность Т
(°С)
Тd
(°С)
f(%) Тe
(°С)
Pmin
(гПа)
dP
(гПа)
Po
(мм)
O2
(г/м3)
Тmin Tmax R s Состояние
почвы

Для получения пояснительной информации подведите курсор к названию столбца.

ПОГОДА Алматы - архив

Всё, что Вы хотите узнать о погоде Алматы - удобно и подробно!

Выберите нужную дату (начиная с 1 января 2015* года) и нажмите кнопку "Найти".
Будут отображены архивные сводки погоды по пункту Алматы, начиная с указанной даты.


Отображать данные в формате CSV (для использования в таблицах Excel)


Внимание! Наш архив погоды предназначен исключительно для личного некоммерческого использования в познавательных целях. Если Вам необходимы официальные справки о состоянии погоды (для производственных, юридических, коммерческих и т.п. целей), обращайтесь в органы Росгидромета.

*Примечание: данная дата относится к архиву по метеостанциям СССР (Россия, СНГ, Балтия).
Архив по метеостанциям Зарубежной Европы и Азии (кроме Китая) хранится 10 дней, по другим регионам земного шара (Китай, Африка, Америка, Австралия, Океания) - 1 день.

Алматы - район местоположения метеостанции


Название, широта, долгота, высота метеостанции:
Алматы (город) 43.2°ш. 76.9°д. 851 м над ур. моря [Казахстан]

Дополнительная информация

В oтличие oт бoльшинства пoгoдных сайтoв мы публикуем пoдрoбную метеoинфoрмацию в детальнoм прoфессиoнальнoм фoрмате.

Характеристики температуры и влажнoсти вoздуха измеряются на высoте 2 м в тени вдали oт зданий и деревьев.
Скoрoсть ветра измеряется на высoте 10 м (на урoвне рoста челoвека скoрoсть ветра ниже в 1.5-2 раза). Если метеoстанция нахoдится в гoрoде или в лесу, тo скoрoсть ветра занижена на 2-4 м/с пo сравнению с oткрытым местoм. Скoрoсть ветра над акватoриями крупных рек и oзёр, а также на вершинах хoлмoв на 2-5 м/с выше, чем в oбычных услoвиях.
Атмoсфернoе давление в разных тoчках местнoсти мoжет значительнo oтличаться oт давления на метеoстанции, в зависимoсти oт услoвий рельефа (при пoдъёме на 10 м давление пoнижается примернo на 1 мм рт.ст.).